Time,TemperatureF,DewpointF,PressureIn,WindDirection,WindDirectionDegrees,WindSpeedMPH,WindSpeedGustMPH,Humidity,HourlyPrecipIn,Conditions,Clouds,dailyrainin,SolarRadiationWatts/m^2,SoftwareType,DateUTC
2013-09-28 00:00:00,82.8,78.9,29.83,East,90,5.0,13.0,88,0.00,,,0.00,0.00,VWS V14.00,2013-09-28 05:00:00,
2013-09-28 00:15:00,82.7,78.8,29.83,East,90,4.0,10.0,88,0.00,,,0.00,0.00,VWS V14.00,2013-09-28 05:15:00,
2013-09-28 00:30:00,82.7,78.8,29.83,East,90,4.0,12.0,88,0.00,,,0.00,0.00,VWS V14.00,2013-09-28 05:30:00,
2013-09-28 00:45:00,82.6,78.7,29.83,ESE,112,4.0,14.0,88,0.00,,,0.00,0.00,VWS V14.00,2013-09-28 05:45:00,
2013-09-28 01:00:00,82.6,78.7,29.84,East,90,4.0,12.0,88,0.00,,,0.00,0.00,VWS V14.00,2013-09-28 06:00:00,
2013-09-28 01:15:00,82.7,78.8,29.83,ESE,112,4.0,12.0,88,0.00,,,0.00,0.00,VWS V14.00,2013-09-28 06:15:00,
2013-09-28 01:30:00,82.7,78.8,29.83,ESE,112,4.0,12.0,88,0.00,,,0.00,0.00,VWS V14.00,2013-09-28 06:30:00,
2013-09-28 01:45:00,82.6,78.7,29.83,ESE,112,4.0,11.0,88,0.00,,,0.00,0.00,VWS V14.00,2013-09-28 06:45:00,
2013-09-28 02:00:00,82.3,78.7,29.82,ESE,112,4.0,14.0,89,0.00,,,0.00,0.00,VWS V14.00,2013-09-28 07:00:00,
2013-09-28 02:15:00,82.4,78.8,29.82,East,90,4.0,14.0,89,0.00,,,0.01,0.00,VWS V14.00,2013-09-28 07:15:00,
2013-09-28 02:30:00,81.8,78.9,29.82,East,90,3.0,13.0,91,0.00,,,0.01,0.00,VWS V14.00,2013-09-28 07:30:00,
2013-09-28 02:45:00,81.9,79.0,29.82,ESE,112,4.0,12.0,91,0.00,,,0.01,0.00,VWS V14.00,2013-09-28 07:45:00,
2013-09-28 03:00:00,82.2,79.0,29.82,ESE,112,4.0,12.0,90,0.00,,,0.01,0.00,VWS V14.00,2013-09-28 08:00:00,
2013-09-28 03:15:00,82.3,79.1,29.82,SSE,158,3.0,11.0,90,0.00,,,0.01,0.00,VWS V14.00,2013-09-28 08:15:00,
2013-09-28 03:30:00,82.3,78.7,29.82,SSE,158,3.0,9.0,89,0.00,,,0.01,0.00,VWS V14.00,2013-09-28 08:30:00,
2013-09-28 03:45:00,82.4,78.8,29.82,South,180,3.0,12.0,89,0.00,,,0.01,0.00,VWS V14.00,2013-09-28 08:45:00,
2013-09-28 04:00:00,82.5,78.9,29.82,South,180,3.0,10.0,89,0.00,,,0.01,0.00,VWS V14.00,2013-09-28 09:00:00,
2013-09-28 04:15:00,82.5,78.9,29.82,SSE,158,3.0,11.0,89,0.00,,,0.01,0.00,VWS V14.00,2013-09-28 09:15:00,
2013-09-28 04:30:00,82.5,78.6,29.82,South,180,4.0,11.0,88,0.00,,,0.01,0.00,VWS V14.00,2013-09-28 09:30:00,
2013-09-28 04:45:00,82.3,78.7,29.82,South,180,2.0,11.0,89,0.00,,,0.01,0.00,VWS V14.00,2013-09-28 09:45:00,
2013-09-28 05:00:00,81.8,78.6,29.82,South,180,2.0,10.0,90,0.00,,,0.01,0.00,VWS V14.00,2013-09-28 10:00:00,
2013-09-28 05:15:00,81.7,78.5,29.83,South,180,2.0,9.0,90,0.00,,,0.02,0.00,VWS V14.00,2013-09-28 10:15:00,
2013-09-28 05:30:00,81.8,78.9,29.83,South,180,2.0,9.0,91,0.00,,,0.02,0.00,VWS V14.00,2013-09-28 10:30:00,
2013-09-28 05:45:00,81.8,78.6,29.83,South,180,2.0,7.0,90,0.00,,,0.02,0.00,VWS V14.00,2013-09-28 10:45:00,
2013-09-28 06:00:00,81.7,78.5,29.83,South,180,2.0,9.0,90,0.00,,,0.02,0.00,VWS V14.00,2013-09-28 11:00:00,
2013-09-28 06:15:00,81.6,78.1,29.83,South,180,1.0,6.0,89,0.00,,,0.02,0.00,VWS V14.00,2013-09-28 11:15:00,
2013-09-28 06:30:00,81.5,77.9,29.84,South,180,2.0,7.0,89,0.00,,,0.02,0.00,VWS V14.00,2013-09-28 11:30:00,
2013-09-28 06:45:00,81.5,78.3,29.84,SE,135,2.0,7.0,90,0.00,,,0.02,0.00,VWS V14.00,2013-09-28 11:45:00,
2013-09-28 07:00:00,81.6,78.4,29.85,South,180,1.0,6.0,90,0.00,,,0.02,0.00,VWS V14.00,2013-09-28 12:00:00,
2013-09-28 07:15:00,81.5,77.9,29.85,South,180,1.0,6.0,89,0.00,,,0.02,0.00,VWS V14.00,2013-09-28 12:15:00,
2013-09-28 07:30:00,81.4,78.2,29.85,SE,135,1.0,7.0,90,0.00,,,0.02,3.00,VWS V14.00,2013-09-28 12:30:00,
2013-09-28 07:45:00,81.7,78.5,29.85,South,180,1.0,5.0,90,0.00,,,0.02,16.00,VWS V14.00,2013-09-28 12:45:00,
2013-09-28 08:00:00,82.0,78.8,29.86,South,180,1.0,5.0,90,0.00,,,0.02,60.00,VWS V14.00,2013-09-28 13:00:00,
2013-09-28 08:15:00,82.6,78.7,29.86,ESE,112,2.0,9.0,88,0.00,,,0.02,116.00,VWS V14.00,2013-09-28 13:15:00,
2013-09-28 08:30:00,83.2,78.9,29.86,SSE,158,1.0,6.0,87,0.00,,,0.02,176.00,VWS V14.00,2013-09-28 13:30:00,
2013-09-28 08:45:00,83.9,79.3,29.87,SSE,158,1.0,6.0,86,0.00,,,0.02,234.00,VWS V14.00,2013-09-28 13:45:00,
2013-09-28 09:00:00,84.5,79.5,29.87,East,90,2.0,6.0,85,0.00,,,0.02,287.00,VWS V14.00,2013-09-28 14:00:00,
2013-09-28 09:15:00,84.8,79.4,29.88,SE,135,2.0,7.0,84,0.00,,,0.02,333.00,VWS V14.00,2013-09-28 14:15:00,
2013-09-28 09:30:00,84.5,79.1,29.88,SE,135,2.0,7.0,84,0.00,,,0.02,230.00,VWS V14.00,2013-09-28 14:30:00,
2013-09-28 09:45:00,85.0,79.6,29.88,SE,135,2.0,9.0,84,0.00,,,0.02,264.00,VWS V14.00,2013-09-28 14:45:00,
2013-09-28 10:00:00,86.2,80.1,29.89,SE,135,2.0,10.0,82,0.00,,,0.02,584.00,VWS V14.00,2013-09-28 15:00:00,
2013-09-28 10:15:00,86.8,80.3,29.89,SSE,158,3.0,11.0,81,0.00,,,0.02,554.00,VWS V14.00,2013-09-28 15:15:00,
2013-09-28 10:30:00,86.8,79.9,29.90,East,90,3.0,9.0,80,0.00,,,0.02,591.00,VWS V14.00,2013-09-28 15:30:00,
2013-09-28 10:45:00,87.6,80.3,29.89,ESE,112,3.0,12.0,79,0.00,,,0.02,680.00,VWS V14.00,2013-09-28 15:45:00,
2013-09-28 11:00:00,87.4,80.5,29.90,South,180,3.0,9.0,80,0.00,,,0.02,681.00,VWS V14.00,2013-09-28 16:00:00,
2013-09-28 11:15:00,88.4,81.1,29.90,SSE,158,3.0,11.0,79,0.00,,,0.02,737.00,VWS V14.00,2013-09-28 16:15:00,
2013-09-28 11:30:00,87.2,79.9,29.90,South,180,3.0,10.0,79,0.00,,,0.02,461.00,VWS V14.00,2013-09-28 16:30:00,
2013-09-28 11:45:00,88.4,80.7,29.90,ESE,112,4.0,10.0,78,0.00,,,0.02,810.00,VWS V14.00,2013-09-28 16:45:00,
2013-09-28 12:00:00,88.1,80.4,29.90,ESE,112,5.0,12.0,78,0.00,,,0.02,862.00,VWS V14.00,2013-09-28 17:00:00,
2013-09-28 12:15:00,87.1,79.8,29.90,ESE,112,4.0,12.0,79,0.00,,,0.02,499.00,VWS V14.00,2013-09-28 17:15:00,
2013-09-28 12:30:00,88.6,80.1,29.89,South,180,3.0,10.0,76,0.00,,,0.02,848.00,VWS V14.00,2013-09-28 17:30:00,
2013-09-28 12:45:00,88.7,80.2,29.89,East,90,3.0,10.0,76,0.00,,,0.02,840.00,VWS V14.00,2013-09-28 17:45:00,
2013-09-28 13:00:00,89.4,80.0,29.88,ESE,112,3.0,11.0,74,0.00,,,0.02,849.00,VWS V14.00,2013-09-28 18:00:00,
2013-09-28 13:15:00,89.8,80.8,29.88,South,180,3.0,11.0,75,0.00,,,0.02,868.00,VWS V14.00,2013-09-28 18:15:00,
2013-09-28 13:30:00,89.4,80.8,29.87,ESE,112,4.0,11.0,76,0.00,,,0.02,871.00,VWS V14.00,2013-09-28 18:30:00,
2013-09-28 13:45:00,88.6,80.5,29.87,ESE,112,5.0,13.0,77,0.00,,,0.02,839.00,VWS V14.00,2013-09-28 18:45:00,
2013-09-28 14:00:00,89.3,81.1,29.86,East,90,4.0,11.0,77,0.00,,,0.02,832.00,VWS V14.00,2013-09-28 19:00:00,
2013-09-28 14:15:00,89.3,80.3,29.86,South,180,4.0,10.0,75,0.00,,,0.02,815.00,VWS V14.00,2013-09-28 19:15:00,
2013-09-28 14:38:00,89.4,80.8,29.86,ESE,112,3.0,10.0,76,0.00,,,0.02,809.00,VWS V14.00,2013-09-28 19:38:00,
2013-09-28 14:45:00,89.2,80.7,29.85,ESE,117,6.0,10.0,76,0.00,,,0.02,791.00,VWS V14.00,2013-09-28 19:45:00,
2013-09-28 15:00:00,89.0,80.8,29.85,ESE,109,4.0,11.0,77,0.00,,,0.02,751.00,VWS V14.00,2013-09-28 20:00:00,
2013-09-28 15:15:00,88.6,80.9,29.84,ESE,112,4.0,12.0,78,0.00,,,0.02,718.00,VWS V14.00,2013-09-28 20:15:00,
2013-09-28 15:30:00,88.4,80.3,29.84,ESE,112,3.0,12.0,77,0.00,,,0.02,640.00,VWS V14.00,2013-09-28 20:30:00,
2013-09-28 15:45:00,87.8,79.7,29.84,ESE,112,3.0,8.0,77,0.00,,,0.02,393.00,VWS V14.00,2013-09-28 20:45:00,
2013-09-28 16:00:00,87.9,80.6,29.84,ESE,112,3.0,12.0,79,0.00,,,0.02,601.00,VWS V14.00,2013-09-28 21:00:00,
2013-09-28 16:15:00,87.8,80.5,29.84,ESE,112,4.0,10.0,79,0.00,,,0.02,561.00,VWS V14.00,2013-09-28 21:15:00,
2013-09-28 16:30:00,87.9,80.6,29.84,ESE,112,4.0,11.0,79,0.00,,,0.02,543.00,VWS V14.00,2013-09-28 21:30:00,
2013-09-28 16:45:00,87.1,80.2,29.83,ESE,112,4.0,12.0,80,0.00,,,0.02,422.00,VWS V14.00,2013-09-28 21:45:00,
2013-09-28 17:00:00,87.2,80.7,29.83,ESE,112,3.0,8.0,81,0.00,,,0.02,365.00,VWS V14.00,2013-09-28 22:00:00,
2013-09-28 17:15:00,87.0,80.1,29.83,SSE,158,3.0,10.0,80,0.00,,,0.02,218.00,VWS V14.00,2013-09-28 22:15:00,
2013-09-28 17:30:00,86.9,80.7,29.83,East,90,3.0,10.0,82,0.00,,,0.02,282.00,VWS V14.00,2013-09-28 22:30:00,
2013-09-28 17:45:00,85.8,80.0,29.82,ESE,112,3.0,11.0,83,0.00,,,0.02,159.00,VWS V14.00,2013-09-28 22:45:00,
2013-09-28 18:00:00,84.9,79.5,29.83,ESE,112,3.0,8.0,84,0.00,,,0.02,75.00,VWS V14.00,2013-09-28 23:00:00,
2013-09-28 18:15:00,85.4,79.7,29.83,SE,135,2.0,10.0,83,0.00,,,0.02,147.00,VWS V14.00,2013-09-28 23:15:00,
2013-09-28 18:30:00,85.3,79.6,29.83,East,90,4.0,10.0,83,0.00,,,0.02,135.00,VWS V14.00,2013-09-28 23:30:00,
2013-09-28 18:45:00,84.3,78.9,29.84,ESE,112,3.0,11.0,84,0.00,,,0.02,31.00,VWS V14.00,2013-09-28 23:45:00,
2013-09-28 19:00:00,84.1,78.8,29.84,East,90,2.0,8.0,84,0.00,,,0.02,20.00,VWS V14.00,2013-09-29 00:00:00,
2013-09-28 19:15:00,83.8,78.8,29.84,SE,135,2.0,7.0,85,0.00,,,0.02,4.00,VWS V14.00,2013-09-29 00:15:00,
2013-09-28 19:30:00,83.5,78.9,29.85,ESE,112,2.0,9.0,86,0.00,,,0.02,0.00,VWS V14.00,2013-09-29 00:30:00,
2013-09-28 19:45:00,83.3,78.7,29.86,East,90,2.0,6.0,86,0.00,,,0.02,0.00,VWS V14.00,2013-09-29 00:45:00,
2013-09-28 20:00:00,83.2,78.9,29.86,ESE,112,2.0,7.0,87,0.00,,,0.02,0.00,VWS V14.00,2013-09-29 01:00:00,
2013-09-28 20:15:00,83.1,78.5,29.86,ESE,112,1.0,5.0,86,0.00,,,0.02,0.00,VWS V14.00,2013-09-29 01:15:00,
2013-09-28 20:30:00,82.9,78.6,29.87,ESE,112,2.0,7.0,87,0.00,,,0.02,0.00,VWS V14.00,2013-09-29 01:30:00,
2013-09-28 20:45:00,82.8,78.5,29.87,East,90,2.0,8.0,87,0.00,,,0.02,0.00,VWS V14.00,2013-09-29 01:45:00,
2013-09-28 21:00:00,82.7,78.4,29.88,ESE,112,2.0,7.0,87,0.00,,,0.02,0.00,VWS V14.00,2013-09-29 02:00:00,
2013-09-28 21:15:00,82.7,78.1,29.88,East,90,2.0,7.0,86,0.00,,,0.02,0.00,VWS V14.00,2013-09-29 02:15:00,
2013-09-28 21:30:00,82.6,78.0,29.89,East,90,3.0,8.0,86,0.00,,,0.02,0.00,VWS V14.00,2013-09-29 02:30:00,
2013-09-28 21:45:00,82.5,77.9,29.89,ESE,112,2.0,6.0,86,0.00,,,0.02,0.00,VWS V14.00,2013-09-29 02:45:00,
2013-09-28 22:00:00,82.3,77.7,29.89,ESE,112,2.0,7.0,86,0.00,,,0.02,0.00,VWS V14.00,2013-09-29 03:00:00,
2013-09-28 22:15:00,82.3,77.7,29.89,East,90,1.0,7.0,86,0.00,,,0.02,0.00,VWS V14.00,2013-09-29 03:15:00,
2013-09-28 22:30:00,82.3,77.7,29.89,SSE,158,1.0,6.0,86,0.00,,,0.02,0.00,VWS V14.00,2013-09-29 03:30:00,
2013-09-28 22:45:00,82.2,77.6,29.90,ESE,112,1.0,5.0,86,0.00,,,0.02,0.00,VWS V14.00,2013-09-29 03:45:00,
2013-09-28 23:00:00,82.1,77.8,29.90,ESE,112,1.0,5.0,87,0.00,,,0.02,0.00,VWS V14.00,2013-09-29 04:00:00,
2013-09-28 23:22:00,82.0,77.8,29.89,SE,135,1.0,5.0,87,0.00,,,0.02,0.00,VWS V14.00,2013-09-29 04:22:00,
2013-09-28 23:30:00,82.1,77.8,29.89,SE,135,1.0,5.0,87,0.00,,,0.02,0.00,VWS V14.00,2013-09-29 04:30:00,
2013-09-28 23:45:00,82.3,78.1,29.88,SSE,158,2.0,6.0,87,0.00,,,0.02,0.00,VWS V14.00,2013-09-29 04:45:00,